When you browse on this site, cookies collect data to enhance your experience and personalize the content and advertising you see.
Visit our Privacy Policy to learn more. By continuing to use the site, you agree to this use of cookies and data.
  • In Austria
  • List of Countries
  • For 7 days
  • Water Temperature
  • Satellite Maps
  • Weather Map
  • News
  • Weather Widgets
  • user-avatar
    Login

    Hourly Weather Ringkøbing

    Today, 21 February, Thursday

    Time Temperature Precipitation Wind Pressure Humidity
    00:00 +5°C° 0.4 mm 4 mps 762 mmHg 93%
    01:00 +5°C° 0.4 mm 4 mps 762 mmHg 93%
    02:00 +5°C° 0.5 mm 5 mps 762 mmHg 93%
    03:00 +5°C° 0.5 mm 5 mps 762 mmHg 93%
    04:00 +5°C° 0.5 mm 5 mps 761 mmHg 93%
    05:00 +5°C° 1.2 mm 5 mps 761 mmHg 93%
    06:00 +4°C° 1.2 mm 6 mps 761 mmHg 94%
    07:00 +4°C° 1.2 mm 6 mps 761 mmHg 94%
    08:00 +5°C° 0.8 mm 6 mps 761 mmHg 93%
    09:00 +5°C° 0.8 mm 6 mps 761 mmHg 92%
    10:00 +5°C° 0.8 mm 6 mps 761 mmHg 91%
    11:00 +5°C° 0.7 mm 6 mps 761 mmHg 90%
    12:00 +7°C° 0.7 mm 6 mps 762 mmHg 90%
    13:00 +7°C° 0.7 mm 6 mps 762 mmHg 89%
    14:00 +7°C° 0.1 mm 6 mps 762 mmHg 89%
    15:00 +7°C° 0.1 mm 6 mps 762 mmHg 90%
    16:00 +7°C° 0.1 mm 6 mps 762 mmHg 90%
    17:00 +7°C° 0.1 mm 5 mps 763 mmHg 90%
    18:00 +7°C° 0.1 mm 5 mps 763 mmHg 91%
    19:00 +7°C° 0.1 mm 5 mps 764 mmHg 91%
    20:00 +6°C° 0 mm 4 mps 765 mmHg 92%
    21:00 +6°C° 0 mm 4 mps 765 mmHg 92%
    22:00 +5°C° 0 mm 4 mps 766 mmHg 93%
    23:00 +3°C° 0 mm 5 mps 767 mmHg 89%

    Tomorrow, 22 February, Friday

    Time Temperature Precipitation Wind Pressure Humidity
    00:00 +2°C° 0 mm 6 mps 768 mmHg 85%
    01:00 0°C° 0 mm 7 mps 769 mmHg 82%
    02:00 +1°C° 0 mm 6 mps 770 mmHg 81%
    03:00 +1°C° 0 mm 6 mps 771 mmHg 80%
    04:00 0°C° 0 mm 5 mps 772 mmHg 79%
    05:00 0°C° 0 mm 5 mps 773 mmHg 77%
    06:00 -1°C° 0 mm 5 mps 774 mmHg 76%
    07:00 -1°C° 0 mm 4 mps 775 mmHg 75%
    08:00 -1°C° 0 mm 4 mps 776 mmHg 73%
    09:00 0°C° 0 mm 5 mps 776 mmHg 71%
    10:00 0°C° 0 mm 5 mps 777 mmHg 69%
    11:00 +1°C° 0 mm 4 mps 778 mmHg 66%
    12:00 +1°C° 0 mm 4 mps 778 mmHg 64%
    13:00 +1°C° 0 mm 4 mps 778 mmHg 62%
    14:00 +1°C° 0 mm 4 mps 778 mmHg 62%
    15:00 +1°C° 0 mm 4 mps 779 mmHg 62%
    16:00 +1°C° 0 mm 4 mps 779 mmHg 63%
    17:00 +1°C° 0 mm 4 mps 779 mmHg 65%
    18:00 0°C° 0 mm 4 mps 779 mmHg 68%
    19:00 +1°C° 0 mm 3 mps 780 mmHg 70%
    20:00 0°C° 0 mm 4 mps 780 mmHg 72%
    21:00 0°C° 0 mm 4 mps 780 mmHg 74%
    22:00 -1°C° 0 mm 4 mps 780 mmHg 75%
    23:00 -1°C° 0 mm 4 mps 780 mmHg 75%

    Day after tomorrow, 23 February, Saturday

    Time Temperature Precipitation Wind Pressure Humidity
    00:00 -1°C° 0 mm 4 mps 780 mmHg 76%
    01:00 -1°C° 0 mm 4 mps 780 mmHg 76%
    02:00 -1°C° 0 mm 4 mps 780 mmHg 75%
    03:00 -1°C° 0 mm 4 mps 780 mmHg 75%
    04:00 0°C° 0 mm 3 mps 779 mmHg 75%
    05:00 0°C° 0 mm 3 mps 779 mmHg 75%
    06:00 0°C° 0 mm 3 mps 779 mmHg 75%
    07:00 0°C° 0 mm 3 mps 779 mmHg 75%
    08:00 +1°C° 0 mm 3 mps 779 mmHg 74%
    09:00 +1°C° 0 mm 3 mps 779 mmHg 73%
    10:00 +1°C° 0 mm 4 mps 779 mmHg 72%
    11:00 +3°C° 0 mm 4 mps 779 mmHg 71%
    12:00 +4°C° 0 mm 4 mps 779 mmHg 70%
    13:00 +5°C° 0 mm 4 mps 778 mmHg 69%
    14:00 +5°C° 0 mm 3 mps 778 mmHg 70%
    15:00 +5°C° 0 mm 3 mps 778 mmHg 70%
    16:00 +7°C° 0 mm 3 mps 778 mmHg 71%
    17:00 +5°C° 0 mm 3 mps 778 mmHg 74%
    18:00 +4°C° 0 mm 3 mps 777 mmHg 76%
    19:00 +3°C° 0 mm 3 mps 777 mmHg 79%
    20:00 +3°C° 0 mm 3 mps 777 mmHg 80%
    21:00 +3°C° 0 mm 3 mps 777 mmHg 80%
    22:00 +3°C° 0 mm 3 mps 777 mmHg 81%
    23:00 +3°C° 0 mm 3 mps 777 mmHg 82%

    24 February, Sunday

    Time Temperature Precipitation Wind Pressure Humidity
    00:00 +3°C° 0 mm 3 mps 777 mmHg 83%
    01:00 +3°C° 0 mm 3 mps 777 mmHg 84%
    02:00 +3°C° 0 mm 3 mps 776 mmHg 85%
    03:00 +3°C° 0 mm 3 mps 776 mmHg 85%
    04:00 +3°C° 0 mm 3 mps 776 mmHg 85%
    05:00 +3°C° 0 mm 3 mps 775 mmHg 84%
    06:00 +3°C° 0 mm 3 mps 775 mmHg 84%
    07:00 +3°C° 0 mm 3 mps 775 mmHg 83%
    08:00 +4°C° 0 mm 4 mps 775 mmHg 79%
    09:00 +5°C° 0 mm 4 mps 775 mmHg 74%
    10:00 +6°C° 0 mm 5 mps 775 mmHg 69%
    11:00 +6°C° 0 mm 5 mps 774 mmHg 68%
    12:00 +7°C° 0 mm 5 mps 774 mmHg 68%
    13:00 +8°C° 0 mm 6 mps 774 mmHg 67%
    14:00 +8°C° 0 mm 6 mps 774 mmHg 70%
    15:00 +8°C° 0 mm 6 mps 773 mmHg 74%
    16:00 +8°C° 0 mm 6 mps 773 mmHg 77%
    17:00 +8°C° 0 mm 6 mps 774 mmHg 75%
    18:00 +7°C° 0 mm 6 mps 774 mmHg 74%
    19:00 +6°C° 0 mm 5 mps 775 mmHg 72%
    20:00 +5°C° 0 mm 5 mps 775 mmHg 77%
    21:00 +5°C° 0 mm 4 mps 776 mmHg 82%
    22:00 +5°C° 0 mm 3 mps 776 mmHg 87%
    23:00 +4°C° 0 mm 3 mps 777 mmHg 87%

    25 February, Monday

    Time Temperature Precipitation Wind Pressure Humidity
    00:00 +4°C° 0 mm 3 mps 777 mmHg 87%
    01:00 +4°C° 0 mm 3 mps 778 mmHg 87%
    02:00 +4°C° 0 mm 2 mps 778 mmHg 86%
    03:00 +4°C° 0 mm 2 mps 778 mmHg 85%
    04:00 +5°C° 0 mm 1 mps 778 mmHg 85%
    05:00 +5°C° 0 mm 1 mps 778 mmHg 84%
    06:00 +5°C° 0 mm 1 mps 778 mmHg 83%
    07:00 +4°C° 0 mm 1 mps 779 mmHg 82%
    08:00 +4°C° 0 mm 2 mps 779 mmHg 80%
    09:00 +4°C° 0 mm 3 mps 779 mmHg 77%
    10:00 +5°C° 0 mm 3 mps 778 mmHg 75%
    11:00 +7°C° 0 mm 3 mps 778 mmHg 74%
    12:00 +7°C° 0 mm 4 mps 778 mmHg 72%
    13:00 +7°C° 0 mm 4 mps 778 mmHg 70%
    14:00 +8°C° 0 mm 4 mps 777 mmHg 70%
    15:00 +8°C° 0 mm 4 mps 777 mmHg 70%
    16:00 +8°C° 0 mm 4 mps 777 mmHg 70%
    17:00 +7°C° 0 mm 4 mps 776 mmHg 75%
    18:00 +6°C° 0 mm 4 mps 776 mmHg 79%
    19:00 +5°C° 0 mm 4 mps 776 mmHg 84%
    20:00 +5°C° 0 mm 4 mps 775 mmHg 81%
    21:00 +5°C° 0 mm 4 mps 775 mmHg 79%
    22:00 +3°C° 0 mm 5 mps 774 mmHg 77%
    23:00 +3°C° 0 mm 5 mps 774 mmHg 75%

    26 February, Tuesday

    Time Temperature Precipitation Wind Pressure Humidity
    00:00 +3°C° 0 mm 5 mps 773 mmHg 74%
    01:00 +3°C° 0 mm 5 mps 773 mmHg 73%
    02:00 +3°C° 0 mm 5 mps 772 mmHg 76%
    03:00 +3°C° 0 mm 5 mps 772 mmHg 79%
    04:00 +3°C° 0 mm 5 mps 771 mmHg 82%
    05:00 +3°C° 0 mm 5 mps 771 mmHg 82%
    06:00 +3°C° 0 mm 5 mps 770 mmHg 83%
    07:00 +3°C° 0 mm 5 mps 770 mmHg 83%
    08:00 +5°C° 0 mm 5 mps 770 mmHg 80%
    09:00 +5°C° 0 mm 5 mps 770 mmHg 77%
    10:00 +6°C° 0 mm 5 mps 769 mmHg 74%
    11:00 +7°C° 0 mm 5 mps 769 mmHg 72%
    12:00 +8°C° 0 mm 5 mps 769 mmHg 70%
    13:00 +9°C° 0 mm 5 mps 768 mmHg 68%
    14:00 +9°C° 0 mm 5 mps 768 mmHg 69%
    15:00 +9°C° 0 mm 5 mps 768 mmHg 70%
    16:00 +9°C° 0 mm 5 mps 768 mmHg 71%
    17:00 +8°C° 0 mm 5 mps 768 mmHg 75%
    18:00 +8°C° 0 mm 4 mps 768 mmHg 79%
    19:00 +7°C° 0 mm 4 mps 768 mmHg 83%
    20:00 +6°C° 0 mm 4 mps 768 mmHg 84%
    21:00 +7°C° 0 mm 3 mps 768 mmHg 86%
    22:00 +7°C° 0 mm 3 mps 768 mmHg 87%
    23:00 +7°C° 0 mm 3 mps 767 mmHg 87%
    Show more